When you browse on this site, cookies collect data to enhance your experience and personalize the content and advertising you see.
Visit our Privacy Policy to learn more. By continuing to use the site, you agree to this use of cookies and data.
  • In Deutschland
  • Länderverzeichnis
  • Für 7 Tage
  • Wassertemperatur
  • Satellitenkarten
  • Wetterkarte
  • Widgets
  • user-avatar
    Anmelden

    Stündliche Wetter Leimen

    Heute, 19 Februar, Dienstag

    Zeit Temperatur Niederschläge Wind Luftdruck Luftfeuchtigkeit
    00:00 +7°C° 0 mm 2 m/S 753 mmHg 72%
    01:00 +7°C° 0 mm 2 m/S 753 mmHg 75%
    02:00 +7°C° 0 mm 2 m/S 753 mmHg 76%
    03:00 +6°C° 0 mm 2 m/S 753 mmHg 78%
    04:00 +6°C° 0 mm 2 m/S 753 mmHg 80%
    05:00 +6°C° 0 mm 2 m/S 754 mmHg 82%
    06:00 +5°C° 0 mm 2 m/S 754 mmHg 83%
    07:00 +5°C° 0 mm 2 m/S 754 mmHg 84%
    08:00 +5°C° 0 mm 3 m/S 754 mmHg 82%
    09:00 +7°C° 0 mm 3 m/S 754 mmHg 81%
    10:00 +8°C° 0 mm 3 m/S 755 mmHg 79%
    11:00 +8°C° 0 mm 4 m/S 755 mmHg 78%
    12:00 +8°C° 0 mm 4 m/S 755 mmHg 77%
    13:00 +10°C° 0 mm 3 m/S 755 mmHg 73%
    14:00 +10°C° 0 mm 3 m/S 755 mmHg 71%
    15:00 +10°C° 0 mm 3 m/S 755 mmHg 68%
    16:00 +11°C° 0 mm 3 m/S 755 mmHg 65%
    17:00 +9°C° 0 mm 3 m/S 755 mmHg 71%
    18:00 +8°C° 0 mm 2 m/S 755 mmHg 77%
    19:00 +7°C° 0 mm 2 m/S 756 mmHg 83%
    20:00 +7°C° 0 mm 2 m/S 756 mmHg 85%
    21:00 +6°C° 0 mm 2 m/S 756 mmHg 87%
    22:00 +7°C° 0 mm 1 m/S 757 mmHg 89%
    23:00 +6°C° 0 mm 1 m/S 757 mmHg 90%

    Morgen, 20 Februar, Mittwoch

    Zeit Temperatur Niederschläge Wind Luftdruck Luftfeuchtigkeit
    00:00 +6°C° 0 mm 1 m/S 757 mmHg 90%
    01:00 +6°C° 0 mm 1 m/S 757 mmHg 91%
    02:00 +5°C° 0 mm 1 m/S 757 mmHg 91%
    03:00 +5°C° 0 mm 1 m/S 757 mmHg 92%
    04:00 +5°C° 0 mm 1 m/S 757 mmHg 92%
    05:00 +5°C° 0 mm 1 m/S 757 mmHg 92%
    06:00 +5°C° 0 mm 1 m/S 757 mmHg 92%
    07:00 +4°C° 0 mm 1 m/S 757 mmHg 93%
    08:00 +6°C° 0 mm 1 m/S 757 mmHg 89%
    09:00 +7°C° 0 mm 1 m/S 758 mmHg 85%
    10:00 +8°C° 0 mm 1 m/S 758 mmHg 81%
    11:00 +9°C° 0 mm 1 m/S 758 mmHg 76%
    12:00 +10°C° 0 mm 1 m/S 758 mmHg 71%
    13:00 +10°C° 0 mm 2 m/S 758 mmHg 66%
    14:00 +12°C° 0 mm 2 m/S 758 mmHg 65%
    15:00 +12°C° 0 mm 2 m/S 758 mmHg 64%
    16:00 +12°C° 0 mm 2 m/S 758 mmHg 63%
    17:00 +11°C° 0 mm 1 m/S 758 mmHg 68%
    18:00 +10°C° 0 mm 1 m/S 758 mmHg 74%
    19:00 +9°C° 0 mm 1 m/S 759 mmHg 80%
    20:00 +8°C° 0 mm 1 m/S 759 mmHg 82%
    21:00 +8°C° 0 mm 1 m/S 759 mmHg 84%
    22:00 +8°C° 0 mm 1 m/S 759 mmHg 86%
    23:00 +7°C° 0 mm 1 m/S 760 mmHg 87%

    übermorgen, 21 Februar, Donnerstag

    Zeit Temperatur Niederschläge Wind Luftdruck Luftfeuchtigkeit
    00:00 +7°C° 0 mm 1 m/S 760 mmHg 88%
    01:00 +7°C° 0 mm 1 m/S 760 mmHg 89%
    02:00 +7°C° 0 mm 1 m/S 760 mmHg 89%
    03:00 +6°C° 0 mm 1 m/S 760 mmHg 90%
    04:00 +6°C° 0 mm 1 m/S 760 mmHg 90%
    05:00 +6°C° 0 mm 1 m/S 760 mmHg 90%
    06:00 +6°C° 0 mm 1 m/S 760 mmHg 90%
    07:00 +6°C° 0 mm 1 m/S 761 mmHg 91%
    08:00 +7°C° 0 mm 1 m/S 761 mmHg 86%
    09:00 +8°C° 0 mm 1 m/S 761 mmHg 82%
    10:00 +9°C° 0 mm 1 m/S 761 mmHg 78%
    11:00 +9°C° 0 mm 2 m/S 761 mmHg 74%
    12:00 +12°C° 0 mm 2 m/S 761 mmHg 70%
    13:00 +13°C° 0 mm 2 m/S 761 mmHg 65%
    14:00 +13°C° 0 mm 2 m/S 761 mmHg 65%
    15:00 +14°C° 0 mm 2 m/S 761 mmHg 65%
    16:00 +13°C° 0 mm 3 m/S 761 mmHg 64%
    17:00 +13°C° 0 mm 2 m/S 761 mmHg 68%
    18:00 +12°C° 0 mm 2 m/S 762 mmHg 72%
    19:00 +11°C° 0 mm 1 m/S 762 mmHg 76%
    20:00 +11°C° 0 mm 1 m/S 762 mmHg 78%
    21:00 +10°C° 0 mm 1 m/S 763 mmHg 81%
    22:00 +9°C° 0 mm 1 m/S 763 mmHg 83%
    23:00 +9°C° 0 mm 1 m/S 764 mmHg 84%

    22 Februar, Freitag

    Zeit Temperatur Niederschläge Wind Luftdruck Luftfeuchtigkeit
    00:00 +8°C° 0 mm 1 m/S 764 mmHg 85%
    01:00 +8°C° 0 mm 1 m/S 764 mmHg 86%
    02:00 +8°C° 0 mm 1 m/S 764 mmHg 87%
    03:00 +7°C° 0 mm 1 m/S 764 mmHg 88%
    04:00 +7°C° 0 mm 1 m/S 764 mmHg 89%
    05:00 +6°C° 0 mm 0 m/S 765 mmHg 90%
    06:00 +6°C° 0 mm 0 m/S 765 mmHg 90%
    07:00 +5°C° 0 mm 0 m/S 765 mmHg 91%
    08:00 +7°C° 0 mm 0 m/S 766 mmHg 86%
    09:00 +8°C° 0 mm 0 m/S 766 mmHg 82%
    10:00 +9°C° 0 mm 0 m/S 766 mmHg 78%
    11:00 +10°C° 0 mm 1 m/S 766 mmHg 78%
    12:00 +10°C° 0 mm 1 m/S 766 mmHg 77%
    13:00 +10°C° 0 mm 1 m/S 766 mmHg 77%
    14:00 +11°C° 0 mm 1 m/S 766 mmHg 75%
    15:00 +12°C° 0 mm 1 m/S 765 mmHg 73%
    16:00 +12°C° 0 mm 2 m/S 765 mmHg 71%
    17:00 +11°C° 0 mm 1 m/S 765 mmHg 76%
    18:00 +10°C° 0 mm 1 m/S 765 mmHg 81%
    19:00 +9°C° 0 mm 1 m/S 766 mmHg 86%
    20:00 +9°C° 0 mm 1 m/S 766 mmHg 87%
    21:00 +9°C° 0 mm 1 m/S 766 mmHg 88%
    22:00 +8°C° 0 mm 1 m/S 766 mmHg 90%
    23:00 +8°C° 0 mm 1 m/S 766 mmHg 91%

    23 Februar, Samstag

    Zeit Temperatur Niederschläge Wind Luftdruck Luftfeuchtigkeit
    00:00 +8°C° 0 mm 1 m/S 766 mmHg 91%
    01:00 +7°C° 0 mm 1 m/S 766 mmHg 92%
    02:00 +7°C° 0 mm 1 m/S 766 mmHg 92%
    03:00 +7°C° 0 mm 1 m/S 766 mmHg 92%
    04:00 +5°C° 0 mm 2 m/S 766 mmHg 92%
    05:00 +5°C° 0 mm 2 m/S 766 mmHg 91%
    06:00 +5°C° 0 mm 2 m/S 766 mmHg 91%
    07:00 +4°C° 0 mm 2 m/S 766 mmHg 90%
    08:00 +5°C° 0 mm 2 m/S 766 mmHg 84%
    09:00 +6°C° 0 mm 2 m/S 766 mmHg 79%
    10:00 +7°C° 0 mm 2 m/S 766 mmHg 74%
    11:00 +9°C° 0 mm 3 m/S 766 mmHg 68%
    12:00 +10°C° 0 mm 3 m/S 765 mmHg 62%
    13:00 +11°C° 0 mm 3 m/S 765 mmHg 55%
    14:00 +11°C° 0 mm 3 m/S 765 mmHg 55%
    15:00 +12°C° 0 mm 3 m/S 765 mmHg 54%
    16:00 +12°C° 0 mm 3 m/S 764 mmHg 53%
    17:00 +11°C° 0 mm 3 m/S 764 mmHg 58%
    18:00 +9°C° 0 mm 3 m/S 765 mmHg 63%
    19:00 +8°C° 0 mm 2 m/S 765 mmHg 68%
    20:00 +8°C° 0 mm 2 m/S 765 mmHg 68%
    21:00 +7°C° 0 mm 2 m/S 765 mmHg 69%
    22:00 +7°C° 0 mm 2 m/S 765 mmHg 69%
    23:00 +6°C° 0 mm 2 m/S 765 mmHg 69%

    24 Februar, Sonntag

    Zeit Temperatur Niederschläge Wind Luftdruck Luftfeuchtigkeit
    00:00 +6°C° 0 mm 2 m/S 765 mmHg 69%
    01:00 +5°C° 0 mm 2 m/S 765 mmHg 69%
    02:00 +5°C° 0 mm 2 m/S 765 mmHg 68%
    03:00 +5°C° 0 mm 2 m/S 765 mmHg 67%
    04:00 +5°C° 0 mm 2 m/S 765 mmHg 66%
    05:00 +4°C° 0 mm 2 m/S 765 mmHg 65%
    06:00 +4°C° 0 mm 2 m/S 765 mmHg 64%
    07:00 +5°C° 0 mm 1 m/S 765 mmHg 63%
    08:00 +5°C° 0 mm 2 m/S 765 mmHg 59%
    09:00 +6°C° 0 mm 2 m/S 766 mmHg 54%
    10:00 +7°C° 0 mm 2 m/S 766 mmHg 50%
    11:00 +9°C° 0 mm 2 m/S 765 mmHg 47%
    12:00 +10°C° 0 mm 2 m/S 765 mmHg 44%
    13:00 +13°C° 0 mm 2 m/S 765 mmHg 41%
    14:00 +13°C° 0 mm 2 m/S 765 mmHg 42%
    15:00 +14°C° 0 mm 2 m/S 764 mmHg 44%
    16:00 +14°C° 0 mm 2 m/S 764 mmHg 46%
    17:00 +12°C° 0 mm 2 m/S 764 mmHg 52%
    18:00 +10°C° 0 mm 2 m/S 764 mmHg 58%
    19:00 +9°C° 0 mm 2 m/S 765 mmHg 64%
    20:00 +8°C° 0 mm 2 m/S 765 mmHg 65%
    21:00 +8°C° 0 mm 2 m/S 765 mmHg 67%
    22:00 +7°C° 0 mm 2 m/S 765 mmHg 68%
    23:00 +7°C° 0 mm 2 m/S 765 mmHg 70%
    Mehr zeigen